Flag for U.S.A. Weather past 2 weeks in Macon, Georgia, U.S.A.

Now
39 °F

Clear.


Feels Like: 37 °F
Forecast: 36 / 65 °F
Wind: 3 mph from Southeast

Location: Middle Georgia Regional Airport

Current Time: Feb 1, 2015 at 2:53:44 AM

Latest Report: Feb 1, 2015 at 1:53 AM


Visibility: 10 mi

Pressure: 30.27 "Hg

Humidity: 70%

Dew point: 30 °F

Location of MaconLocation

Historic Weather in Macon — Graph

°F

Macon temperature yesterday

Maximum temperature yesterday: 57 °F (at 3:53 PM)
Minimum temperature yesterday: 24 °F (at 7:53 AM)
Average temperature yesterday: 40 °F

Past Weeks' High & Low Weather Summary

 TemperatureHumidityPressure
High69 °F (Jan 21, 2:53 PM)100% (Jan 18, 3:00 AM)30.41 "Hg (Jan 18, 3:00 AM)
Low24 °F (Jan 31, 7:53 AM)19% (Jan 19, 3:53 PM)29.72 "Hg (Jan 24, 1:53 AM)
Average45 °F67%30.09 "Hg
* Reported Jan 17 1:53 AM — Feb 1 1:53 AM, Macon, Weather by CustomWeather, © 2014

Note: Actual official high and low records may vary slightly from our data, if they occured in-between our weather recording intervals... More about our weather records

Advertising

Macon weather history for previous 24 hours

 ConditionsComfort  
Time TempWeatherWind HumidityBarometerVisibility
1:53 AM
Feb 1
39 °FClear.3 mph70%30.27 "Hg10 mi
12:53 AM35 °FClear.No wind75%30.28 "Hg10 mi
11:53 PM
Jan 31
34 °FClear.No wind79%30.29 "Hg10 mi
10:53 PM35 °FClear.No wind70%30.29 "Hg10 mi
9:53 PM36 °FClear.No wind75%30.31 "Hg10 mi
8:53 PM40 °FClear.No wind63%30.31 "Hg10 mi
7:53 PM42 °FClear.No wind55%30.32 "Hg10 mi
6:53 PM48 °FClear.3 mph43%30.30 "Hg10 mi
5:53 PM54 °FSunny.No wind27%30.30 "Hg10 mi
4:53 PM57 °FSunny.No wind22%30.29 "Hg10 mi
3:53 PM57 °FSunny.7 mph26%30.29 "Hg10 mi
2:53 PM56 °FSunny.3 mph23%30.31 "Hg10 mi
1:53 PM54 °FSunny.No wind26%30.33 "Hg10 mi
12:53 PM50 °FSunny.No wind29%30.37 "Hg10 mi
11:53 AM49 °FSunny.5 mph36%30.39 "Hg10 mi
10:53 AM44 °FSunny.3 mph45%30.41 "Hg10 mi
9:53 AM39 °FSunny.3 mph57%30.41 "Hg10 mi
8:53 AM30 °FSunny.No wind89%30.38 "Hg10 mi
7:53 AM24 °FSunny.3 mph91%30.37 "Hg10 mi
6:53 AM25 °FClear.3 mph92%30.36 "Hg10 mi
5:53 AM26 °FClear.3 mph92%30.35 "Hg10 mi
4:53 AM28 °FClear.No wind93%30.33 "Hg10 mi
3:53 AM28 °FClear.No wind85%30.33 "Hg10 mi
2:53 AM29 °FClear.No wind79%30.34 "Hg10 mi
Weather by CustomWeather, © 2014

See weather overviewHow to use our weather pages